Temperature
21 21 20 20 20 22 23 24 25 26 26 26 26 26 24 23 22 20 19 20 20 19 19 19 20 19 19 19 19 19 19 19 19 19 19 19 19 19 19 19 19 19 19 19 19 19 19 19 19
21 20 20 21 22 23 23 24 25 26 26 26 26 25 24 22 21 19 19 19 19 19 19 19 19 19 19 19 19 19 19 19 19 19 19 19 19 19 19 19 19 19 19 18 18 18 19 19 19
21 21 21 22 23 24 24 25 25 26 26 26 26 24 22 20 19 19 19 19 19 19 19 19 19 19 19 19 19 19 19 19 19 19 19 19 18 18 18 18 18 18 18 18 18 18 19 19 19
21 22 23 23 24 26 25 26 27 27 26 26 25 23 20 19 19 19 19 19 19 18 19 19 19 19 19 19 18 18 18 18 18 18 18 18 18 18 18 18 18 18 18 18 18 18 18 18 18
22 23 23 23 25 26 27 27 27 26 26 25 24 22 20 19 19 19 19 19 18 18 18 18 18 19 18 18 18 18 18 18 18 18 18 18 18 18 18 18 18 18 18 18 18 18 18 18 18
23 24 23 23 25 26 27 27 27 26 26 25 24 22 20 19 19 19 19 19 19 18 18 18 18 18 18 18 18 18 18 18 18 18 18 18 18 18 18 18 18 18 18 18 18 18 18 18 18
24 24 25 25 25 25 27 27 26 26 25 25 24 22 20 19 19 19 19 19 19 18 18 18 18 18 17 18 18 18 18 18 18 18 18 18 18 18 18 18 18 18 18 18 18 18 18 18 18
25 26 25 25 25 25 26 26 25 25 25 24 23 22 21 20 20 20 19 19 19 18 18 18 18 17 17 17 17 18 18 18 18 18 18 18 18 18 18 18 18 18 18 18 18 18 18 18 18
26 25 23 25 25 25 26 26 25 24 24 23 22 21 20 20 20 20 19 19 19 18 18 18 17 17 17 17 17 17 17 17 17 17 17 17 18 18 18 18 18 18 18 18 18 18 18 18 18
27 24 25 26 26 26 26 25 25 25 24 23 22 21 20 20 20 20 19 19 18 18 17 17 17 17 17 17 17 17 17 17 17 17 17 17 17 17 17 17 18 18 18 18 18 18 18 18 18
28 26 26 27 26 26 26 25 25 25 23 23 22 21 21 20 20 20 19 19 18 18 17 17 17 17 17 16 16 16 16 16 16 16 16 16 17 17 17 17 17 17 17 18 18 18 18 18 18
28 27 27 27 26 26 26 25 25 24 23 22 21 21 21 21 20 20 19 19 18 18 17 17 16 16 16 16 16 16 16 16 16 16 16 16 16 16 16 17 17 17 17 17 17 18 18 18 18
27 27 27 26 25 25 25 25 24 23 22 22 21 21 21 20 20 20 19 19 18 18 17 17 16 16 16 16 16 15 15 15 15 15 15 16 16 16 16 16 16 17 17 17 17 17 17 18 18
26 26 26 26 25 25 25 25 24 23 22 22 21 21 21 20 20 19 19 18 18 17 17 16 16 15 15 15 15 15 15 15 15 15 15 15 15 15 16 16 16 16 16 17 17 17 17 17 18
27 27 26 26 26 26 25 24 25 23 22 22 22 21 20 20 20 19 19 18 17 17 16 16 16 15 15 15 14 14 14 15 14 14 15 15 15 15 15 15 16 16 16 16 17 17 17 17 18
28 26 25 25 25 25 25 24 25 23 23 23 22 22 21 20 20 19 18 18 17 16 16 16 15 15 15 14 14 14 14 14 14 14 14 14 14 15 15 15 15 15 15 16 16 16 17 17 17
25 24 24 24 25 25 25 24 25 23 23 23 23 22 22 21 20 19 18 17 17 16 16 16 15 15 14 14 14 14 14 14 14 14 14 14 14 14 14 15 15 15 15 15 16 16 16 17 17
23 24 24 25 25 26 26 25 25 24 24 23 23 23 22 22 20 19 18 17 17 16 16 15 15 15 14 14 14 14 14 14 14 14 14 14 14 14 14 14 14 15 15 15 15 16 16 16 17
24 25 26 26 26 26 26 26 26 25 24 24 23 23 23 22 21 19 18 17 17 16 16 15 15 14 14 14 14 13 13 13 13 13 13 13 13 13 13 14 14 14 14 15 15 15 16 16 16
26 26 27 27 26 26 26 26 27 26 25 24 24 23 23 21 21 20 18 17 17 16 15 15 14 14 14 14 13 13 13 13 13 13 13 13 13 13 13 13 13 14 14 14 15 15 15 15 16
27 27 27 26 26 26 26 26 27 26 25 24 24 23 22 21 20 19 18 17 16 16 15 15 14 14 14 14 14 13 13 13 13 13 13 13 13 13 13 13 13 13 14 14 14 14 15 15 15
26 27 27 26 26 26 27 25 26 25 25 24 24 23 22 21 20 19 18 17 16 16 15 14 14 14 13 13 13 13 13 13 13 13 13 13 13 13 13 13 13 13 13 14 14 14 14 15 15
26 27 27 27 26 26 27 26 26 25 25 24 24 23 22 21 20 19 18 17 16 15 15 14 14 13 13 13 13 13 13 13 13 13 13 13 13 13 13 13 13 13 13 14 14 14 14 14 15
27 27 27 27 26 25 27 26 25 25 25 24 24 23 21 20 19 19 18 17 16 15 15 14 14 13 13 13 13 13 13 13 13 13 13 13 13 13 13 13 13 13 13 13 13 14 14 14 14
27 26 25 25 24 26 27 26 25 24 25 24 24 23 21 20 19 18 18 17 16 15 15 14 14 13 13 13 13 13 13 13 13 13 12 13 13 13 12 12 12 13 13 13 13 13 14 14 14
27 27 25 24 25 26 26 26 24 25 24 23 23 22 21 20 19 18 18 17 16 15 15 14 14 13 13 13 13 13 13 12 12 12 12 12 13 12 12 12 12 12 13 13 13 13 13 14 14
27 27 27 25 26 26 27 26 24 24 24 23 23 22 21 20 19 19 18 17 16 16 15 14 14 13 13 13 13 13 13 12 12 12 12 12 12 12 12 12 12 12 13 13 13 13 13 13 14
27 26 26 25 24 25 26 26 24 23 24 24 23 23 22 21 20 19 18 17 16 16 15 15 14 14 14 13 13 13 13 12 12 12 12 12 12 12 12 12 12 12 13 13 13 13 13 13 13
26 26 26 25 25 24 24 24 25 24 24 24 24 23 22 21 20 19 18 17 17 16 15 15 15 14 14 13 13 13 13 12 12 12 12 12 12 12 12 12 12 12 12 12 13 13 13 13 13
27 26 26 25 25 25 24 23 25 25 24 24 23 22 21 21 20 19 18 17 17 16 16 15 15 14 14 13 13 13 13 13 12 12 12 12 12 12 12 12 12 12 12 12 12 12 13 13 13
Wind_Speed
10 10 6 2 2 1 4 7 8 9 7 9 10 11 13 13 8 6 1 6 8 11 12 11 8 6 4 3 2 2 2 2 2 2 2 2 2 2 3 3 3 3 3 3 3 4 4 4 5
9 7 5 3 2 1 5 7 8 9 7 5 8 12 12 11 10 6 4 6 9 12 13 11 9 7 5 4 3 3 3 4 4 4 4 4 3 4 4 4 4 4 4 3 2 3 3 3 4
10 7 4 3 1 5 5 6 5 8 9 8 8 11 8 6 7 4 4 6 10 12 13 12 11 9 7 6 5 4 4 4 4 4 5 5 6 5 5 5 5 5 5 4 2 2 2 2 3
5 4 4 2 6 10 8 5 6 7 8 9 8 9 7 7 4 4 6 8 10 10 12 12 11 9 8 7 6 5 5 5 4 4 5 5 6 6 6 6 6 6 5 5 3 3 3 3 2
4 4 2 1 7 9 8 8 8 9 9 11 11 9 7 7 6 6 7 8 9 9 9 10 9 8 7 6 6 5 5 5 5 4 4 5 6 6 7 7 7 7 6 6 5 4 4 4 3
3 3 2 2 6 7 8 8 9 9 10 10 8 8 6 6 6 6 7 7 7 7 7 7 7 6 6 5 5 5 5 5 5 5 5 5 6 6 7 8 8 8 7 7 6 6 6 5 5
5 5 3 4 6 5 7 9 10 8 10 10 7 7 6 7 5 4 6 6 6 6 5 4 5 4 4 3 3 2 3 4 5 6 6 6 7 7 8 9 10 9 9 8 8 7 7 7 6
4 5 4 4 5 5 7 7 8 9 9 9 8 7 6 6 5 4 5 5 5 5 5 3 3 4 3 1 3 2 3 4 6 8 8 8 9 10 10 11 11 11 10 10 9 9 9 9 9
5 3 3 5 4 4 4 5 7 6 10 10 12 11 8 5 4 4 4 5 6 6 5 4 4 3 3 4 2 3 5 6 7 8 9 9 8 9 9 10 9 10 10 11 11 10 10 11 11
4 1 3 4 4 4 4 4 4 3 7 8 9 9 6 5 5 5 5 6 5 5 6 5 5 4 4 5 4 3 5 5 6 7 6 6 7 7 8 7 10 11 11 11 12 12 11 11 11
1 2 3 4 5 3 4 4 2 2 5 5 6 6 6 4 4 5 5 5 5 5 6 5 5 5 4 3 3 3 4 5 5 5 6 6 6 6 6 4 6 8 10 9 9 10 10 11 10
0 3 2 4 4 1 2 2 3 5 6 7 7 5 4 3 5 5 5 4 4 5 5 5 6 5 5 4 3 3 2 2 3 4 6 4 2 2 3 2 3 4 5 5 5 5 8 9 10
2 4 3 4 2 1 1 2 3 5 6 6 5 3 3 5 5 5 5 5 5 6 5 5 6 7 6 5 3 4 2 3 5 4 5 5 2 3 3 2 2 4 5 4 4 4 6 6 5
2 3 5 5 4 3 3 3 5 6 6 5 4 3 4 4 4 4 6 6 7 7 6 6 6 6 7 6 6 5 4 5 5 4 6 7 3 2 3 3 3 3 4 6 4 5 5 5 4
4 6 6 7 7 4 3 6 8 10 8 6 5 4 3 1 2 4 6 6 7 7 7 6 6 6 7 6 6 5 5 5 3 4 7 8 6 4 3 3 3 3 5 5 4 4 3 4 4
8 8 6 5 5 5 4 5 8 11 8 6 4 3 3 2 1 4 5 5 6 6 6 6 7 7 7 6 5 4 4 4 4 5 5 6 7 7 3 3 3 3 4 3 3 4 4 4 3
5 6 6 5 8 6 6 4 8 9 8 6 5 4 5 4 2 4 5 5 5 4 5 6 6 6 6 6 5 4 4 4 4 5 4 5 7 8 4 3 3 3 3 3 4 4 3 4 4
3 6 7 4 7 6 6 6 7 10 8 6 5 5 5 3 4 6 5 3 3 4 6 7 6 6 6 5 5 4 5 5 4 3 4 5 5 7 5 3 4 3 3 3 3 4 3 3 3
6 10 7 2 4 3 8 7 5 10 8 6 6 5 2 3 4 6 5 3 4 5 6 6 6 6 5 4 4 4 5 5 4 4 4 5 5 5 4 4 4 3 3 3 4 3 3 3 3
11 11 6 3 3 4 9 8 4 8 7 5 3 2 2 4 3 5 5 4 5 5 5 6 6 6 6 4 4 3 4 4 4 4 4 5 5 5 5 4 3 3 3 3 3 3 2 2 3
9 5 6 6 4 8 9 9 7 8 6 5 3 1 1 2 3 4 4 4 4 4 5 6 5 6 6 6 4 5 4 4 4 4 4 4 5 4 3 4 4 4 3 3 3 3 2 2 3
5 5 5 8 8 7 4 4 5 11 8 7 5 3 3 3 2 3 3 4 4 4 5 6 6 6 7 7 5 6 5 5 5 4 4 4 4 4 4 4 4 4 3 3 4 3 3 3 3
2 2 6 9 9 10 8 6 5 9 6 6 5 4 4 4 2 3 3 4 3 4 5 5 6 6 6 7 6 5 4 4 4 5 5 5 4 4 4 4 4 3 3 3 4 3 3 3 3
1 7 10 9 8 8 4 3 4 4 7 6 6 5 5 4 3 3 3 4 3 4 4 4 4 5 5 6 7 6 6 6 7 6 5 5 4 4 4 4 4 3 2 3 3 3 3 3 3
5 8 5 5 6 3 6 1 5 10 8 6 5 5 5 4 3 2 2 3 2 2 3 4 4 4 5 6 7 7 7 6 6 6 6 5 4 3 4 4 4 4 3 3 3 3 3 3 3
4 6 6 5 4 1 4 3 8 10 8 5 4 5 3 3 4 3 2 2 1 2 2 3 4 4 5 5 6 6 7 5 5 6 6 5 4 3 4 4 4 4 4 4 2 2 3 2 3
5 4 3 5 9 7 4 8 8 7 7 5 4 4 4 3 4 3 3 2 1 1 2 2 3 4 5 5 5 4 5 5 6 6 6 5 5 4 5 5 5 4 3 3 2 2 2 2 2
5 7 4 4 5 5 1 4 6 6 5 3 2 3 3 3 3 4 3 2 2 1 1 1 1 3 3 4 5 5 4 4 5 6 6 6 6 5 5 5 5 4 4 3 2 1 1 2 2
7 6 4 4 5 4 4 4 6 6 5 2 1 3 3 3 3 3 3 2 2 1 0 1 0 1 3 4 5 5 5 5 5 5 6 6 5 5 5 5 5 5 4 4 3 2 1 1 2
4 5 5 4 3 2 3 3 5 5 4 1 1 3 3 3 3 3 4 3 2 0 1 0 1 1 2 2 4 4 4 5 5 6 7 6 5 5 5 5 5 5 5 4 3 2 2 1 2
Wind_Direction
200 214 210 221 239 251 48 48 51 38 40 34 38 60 66 53 45 79 11 17 64 86 104 106 98 89 78 63 34 6 349 332 308 290 284 288 293 303 308 307 317 329 337 349 7 9 9 14 16
221 212 224 235 257 75 63 52 54 50 47 43 51 62 67 60 52 71 26 26 65 75 81 85 85 75 62 46 25 358 336 321 313 304 295 287 282 278 282 285 291 298 305 315 337 356 357 359 10
242 230 242 237 359 67 70 57 66 64 47 45 60 58 54 44 41 48 27 57 75 77 78 76 75 67 59 49 32 13 355 337 322 310 302 292 281 274 275 279 282 287 290 293 306 323 332 332 351
230 232 254 267 70 69 71 66 68 70 58 51 68 72 70 48 46 50 43 61 73 77 83 80 72 69 61 50 39 23 5 350 334 318 302 291 279 272 272 274 275 278 282 281 280 279 285 292 307
235 243 277 10 72 72 65 56 61 62 59 55 70 88 83 66 68 70 65 62 70 74 81 89 83 76 70 60 46 29 9 354 343 330 315 297 285 277 273 272 273 275 273 269 265 263 264 267 276
256 257 286 76 82 76 64 50 58 64 60 54 76 94 87 83 69 75 79 76 78 81 86 102 105 96 86 73 56 34 9 348 329 316 307 297 288 276 269 267 265 266 265 262 260 253 248 248 257
273 284 307 83 88 76 65 54 49 55 53 41 54 92 103 89 90 87 88 89 84 81 77 75 90 105 116 109 92 45 359 327 309 299 289 282 280 273 265 259 254 252 252 252 252 248 243 240 243
281 294 343 38 71 75 64 64 55 48 59 46 39 78 94 95 104 97 94 93 79 64 59 56 46 42 31 174 171 225 262 277 286 284 281 276 272 268 262 256 249 244 244 243 240 240 240 241 240
263 300 13 32 50 78 74 78 78 73 75 71 68 74 83 89 89 71 66 62 57 45 35 18 13 9 342 316 315 254 262 255 268 274 271 266 266 269 264 251 250 244 240 239 235 234 235 239 240
235 10 51 37 56 89 82 63 82 90 85 89 92 94 96 84 66 51 44 38 35 35 31 15 357 347 343 331 332 297 296 273 262 274 281 263 262 267 271 261 248 242 241 242 237 235 233 236 240
323 55 87 81 66 90 108 94 58 74 81 81 95 100 94 86 76 53 41 36 27 34 30 7 353 343 334 318 333 320 294 279 271 278 282 271 269 267 268 263 249 234 233 236 236 230 230 232 233
146 77 70 92 83 69 91 102 78 57 84 93 90 89 98 70 52 48 42 29 18 35 25 10 358 341 331 336 340 294 294 298 294 289 290 282 261 265 262 258 251 238 233 227 228 219 226 236 239
192 133 117 105 136 116 99 107 93 111 111 112 117 125 81 51 26 31 35 17 9 26 16 21 3 352 342 341 321 329 329 326 312 310 299 284 256 260 259 258 243 238 231 221 225 222 235 240 243
125 162 157 161 166 173 180 174 173 159 150 156 166 154 76 47 13 13 29 9 10 17 7 20 5 354 349 349 346 336 326 311 312 321 310 303 294 266 268 260 249 241 238 227 216 226 235 240 246
183 195 188 193 195 172 212 233 197 153 166 186 195 160 119 53 356 29 37 11 10 8 3 11 350 5 354 351 348 329 316 322 326 324 315 317 310 289 270 274 261 244 246 238 225 230 241 239 244
224 227 222 191 203 159 223 280 140 144 177 198 211 163 160 171 358 49 44 18 13 4 355 356 356 1 351 351 329 317 326 338 329 322 321 325 321 312 295 278 269 258 258 242 235 221 232 236 232
237 264 276 183 198 199 220 266 152 165 187 201 211 210 199 183 134 82 58 26 7 358 353 360 9 356 353 344 330 336 337 331 325 332 340 335 329 321 318 303 278 268 257 245 249 231 220 227 222
262 268 273 222 180 223 249 255 179 176 191 214 221 223 215 173 103 84 69 36 0 6 9 10 5 2 359 355 343 340 332 331 330 333 333 335 323 322 319 295 294 288 267 247 249 250 229 224 213
260 268 274 125 119 285 280 271 203 171 181 208 228 238 234 94 87 92 76 45 16 19 18 4 5 2 3 359 340 335 330 326 320 314 325 326 318 316 303 301 307 304 281 258 252 254 241 226 201
256 270 304 61 87 308 288 282 236 162 176 191 236 285 9 67 38 79 74 46 29 17 15 5 3 358 2 348 331 318 320 311 309 314 321 330 327 321 309 309 310 304 293 276 264 261 235 235 197
259 303 347 339 315 262 264 266 203 148 151 156 185 172 41 68 21 43 51 43 29 23 18 4 359 357 360 348 349 339 330 324 332 328 329 324 316 316 307 306 303 296 291 279 267 252 230 233 231
310 34 341 306 291 283 256 296 161 144 161 174 172 150 120 91 60 64 59 45 22 31 26 5 4 7 3 352 357 341 338 339 328 330 325 323 324 329 322 307 300 292 284 283 273 256 236 220 227
19 327 285 281 280 280 254 257 138 145 159 142 128 115 103 102 85 65 76 64 30 34 29 7 2 9 0 344 331 323 349 337 328 333 331 333 335 334 328 319 302 291 280 275 274 272 252 230 223
297 266 255 248 257 260 240 252 116 115 90 93 106 115 119 108 94 72 74 83 49 36 24 4 7 4 351 338 336 349 355 343 338 340 343 337 331 332 344 338 324 315 305 290 277 270 252 241 232
244 273 275 233 220 213 108 190 82 90 81 76 82 93 95 106 107 90 65 80 58 35 18 355 4 2 356 346 346 350 355 351 346 347 336 334 336 338 346 341 325 325 320 307 296 281 262 250 238
253 278 301 309 312 22 159 162 101 99 92 93 104 107 118 141 129 127 111 99 78 38 19 358 5 356 347 338 347 357 358 355 346 338 334 339 333 334 345 331 322 318 318 312 312 295 277 259 247
286 271 330 312 291 282 185 126 117 124 137 146 150 143 166 158 146 149 136 125 106 63 30 14 1 345 342 343 350 359 352 350 341 339 340 336 334 340 345 328 321 320 322 314 312 292 283 283 253
287 324 304 270 307 302 230 132 127 140 128 132 160 155 146 145 151 142 135 127 116 115 109 54 338 328 336 346 349 354 355 357 344 339 343 345 339 341 333 332 334 333 330 317 308 291 276 289 275
200 226 241 277 282 296 343 64 76 89 82 60 55 106 122 135 144 138 134 125 116 107 158 170 260 351 6 2 350 356 357 353 346 343 348 344 341 343 340 341 340 338 337 333 332 327 329 300 294
272 272 273 272 302 282 284 102 98 103 113 127 88 108 126 132 142 147 139 135 128 168 291 315 22 44 27 356 344 359 352 354 353 349 347 339 339 339 342 343 341 343 342 337 336 327 317 302 298
Height
1520 1521 1522 1524 1524 1526 1524 1518 1513 1512 1511 1512 1511 1512 1517 1522 1527 1537 1536 1533 1534 1533 1533 1533 1534 1534 1535 1536 1536 1537 1538 1538 1539 1540 1540 1541 1541 1542 1542 1542 1542 1542 1542 1542 1542 1542 1542 1542 1542
1520 1522 1524 1524 1525 1531 1528 1517 1516 1514 1513 1513 1514 1516 1520 1526 1531 1533 1534 1534 1534 1533 1533 1533 1534 1534 1535 1535 1536 1536 1537 1537 1538 1539 1539 1540 1540 1541 1541 1541 1542 1542 1542 1542 1542 1542 1542 1542 1542
1520 1522 1523 1521 1521 1526 1526 1517 1515 1514 1515 1514 1516 1520 1526 1531 1534 1534 1535 1534 1534 1533 1533 1533 1534 1534 1535 1535 1535 1536 1536 1536 1537 1537 1538 1538 1539 1539 1540 1540 1540 1541 1541 1541 1541 1541 1541 1542 1542
1521 1522 1521 1520 1520 1515 1516 1514 1513 1514 1516 1517 1518 1525 1531 1535 1535 1535 1535 1535 1534 1534 1534 1533 1534 1534 1534 1534 1534 1534 1535 1535 1535 1536 1536 1537 1537 1538 1538 1539 1539 1540 1540 1540 1540 1540 1540 1541 1541
1521 1521 1521 1523 1518 1513 1512 1513 1514 1515 1517 1519 1522 1528 1534 1536 1536 1536 1536 1535 1535 1534 1534 1534 1533 1533 1533 1533 1533 1533 1533 1534 1534 1534 1534 1535 1535 1536 1536 1537 1537 1538 1538 1539 1539 1539 1539 1540 1540
1521 1518 1525 1526 1520 1514 1514 1515 1516 1517 1519 1521 1524 1528 1535 1537 1537 1536 1536 1536 1535 1535 1534 1534 1533 1532 1532 1532 1531 1531 1531 1532 1532 1532 1532 1533 1533 1533 1534 1535 1535 1536 1536 1537 1537 1538 1538 1539 1539
1521 1517 1519 1519 1520 1518 1516 1517 1518 1520 1522 1525 1526 1529 1535 1537 1537 1537 1536 1536 1535 1535 1534 1534 1533 1532 1531 1530 1530 1530 1529 1529 1529 1530 1530 1530 1530 1531 1531 1532 1533 1533 1534 1535 1535 1536 1537 1537 1538
1518 1515 1519 1518 1521 1521 1518 1519 1522 1523 1525 1527 1528 1530 1535 1538 1537 1537 1537 1536 1536 1535 1535 1534 1533 1532 1530 1529 1528 1527 1527 1527 1527 1527 1527 1527 1527 1528 1529 1529 1530 1531 1532 1533 1533 1534 1535 1535 1536
1517 1519 1526 1521 1520 1520 1519 1520 1524 1526 1527 1529 1531 1533 1536 1537 1537 1537 1537 1537 1536 1535 1534 1534 1532 1531 1529 1528 1527 1526 1525 1524 1524 1524 1524 1524 1524 1525 1526 1526 1527 1528 1529 1530 1531 1532 1533 1534 1534
1514 1521 1522 1517 1516 1518 1520 1522 1524 1525 1527 1530 1533 1535 1536 1537 1537 1537 1537 1537 1536 1535 1534 1533 1531 1530 1528 1527 1526 1524 1523 1522 1521 1521 1521 1521 1521 1522 1522 1523 1524 1525 1526 1527 1529 1530 1530 1531 1532
1511 1515 1515 1516 1517 1519 1520 1523 1525 1526 1529 1531 1533 1535 1536 1537 1537 1537 1537 1537 1536 1535 1533 1532 1530 1529 1527 1526 1524 1522 1521 1520 1519 1519 1518 1518 1518 1519 1520 1520 1521 1522 1523 1524 1526 1527 1528 1529 1530
1512 1513 1514 1516 1519 1519 1520 1523 1525 1527 1530 1532 1534 1535 1536 1536 1537 1537 1536 1536 1535 1533 1532 1531 1529 1528 1526 1524 1522 1521 1520 1519 1518 1517 1516 1515 1515 1516 1517 1517 1518 1519 1520 1521 1523 1524 1525 1526 1527
1510 1513 1515 1517 1519 1520 1522 1523 1526 1529 1531 1533 1534 1535 1536 1536 1537 1536 1536 1535 1534 1533 1531 1530 1528 1526 1525 1523 1521 1520 1518 1517 1516 1514 1514 1513 1513 1513 1513 1514 1515 1516 1517 1518 1520 1521 1522 1524 1525
1512 1513 1515 1517 1519 1520 1521 1523 1526 1528 1530 1532 1533 1534 1535 1536 1536 1536 1535 1534 1534 1532 1531 1529 1527 1525 1523 1521 1519 1518 1516 1515 1514 1512 1511 1511 1511 1510 1511 1511 1511 1513 1514 1515 1516 1517 1519 1521 1522
1510 1512 1513 1515 1517 1518 1521 1522 1521 1525 1529 1531 1532 1532 1534 1535 1535 1534 1534 1534 1533 1531 1530 1528 1526 1523 1522 1520 1517 1516 1514 1513 1511 1510 1509 1509 1508 1508 1508 1508 1508 1509 1510 1512 1513 1514 1516 1518 1519
1509 1512 1518 1515 1515 1517 1523 1525 1518 1523 1526 1528 1530 1531 1532 1533 1533 1533 1533 1532 1531 1530 1529 1527 1525 1522 1520 1518 1516 1514 1513 1511 1510 1508 1507 1506 1505 1505 1505 1505 1505 1506 1507 1508 1509 1511 1512 1514 1516
1514 1523 1521 1517 1515 1515 1518 1520 1517 1520 1523 1526 1527 1529 1530 1530 1531 1531 1531 1531 1530 1529 1527 1526 1523 1521 1518 1516 1514 1512 1511 1509 1508 1506 1505 1504 1503 1502 1502 1502 1502 1503 1504 1505 1506 1507 1509 1511 1512
1524 1522 1518 1515 1511 1512 1513 1513 1513 1516 1520 1522 1524 1526 1527 1528 1529 1529 1529 1530 1529 1528 1526 1525 1522 1520 1517 1515 1513 1511 1509 1507 1506 1504 1503 1501 1500 1500 1499 1499 1499 1500 1501 1501 1502 1504 1506 1507 1509
1514 1513 1511 1508 1507 1511 1511 1509 1508 1512 1516 1520 1522 1523 1524 1526 1528 1528 1528 1529 1528 1527 1525 1523 1521 1519 1516 1514 1511 1509 1507 1505 1504 1502 1501 1499 1498 1497 1497 1497 1497 1497 1498 1499 1500 1501 1502 1504 1506
1509 1510 1506 1505 1506 1510 1509 1506 1503 1507 1513 1517 1519 1521 1523 1525 1527 1528 1528 1528 1527 1526 1524 1523 1520 1518 1516 1513 1511 1509 1507 1504 1503 1501 1499 1498 1496 1495 1495 1494 1494 1494 1495 1496 1497 1498 1499 1501 1503
1503 1505 1507 1509 1506 1505 1508 1508 1502 1504 1511 1515 1518 1520 1523 1524 1526 1527 1527 1527 1526 1525 1523 1522 1520 1518 1515 1513 1510 1508 1506 1503 1501 1499 1497 1496 1495 1494 1493 1492 1492 1492 1492 1493 1494 1495 1496 1498 1499
1507 1504 1506 1508 1512 1511 1506 1519 1505 1504 1509 1512 1516 1519 1521 1523 1525 1526 1526 1526 1525 1524 1523 1521 1519 1517 1514 1512 1510 1507 1505 1503 1501 1499 1496 1495 1494 1492 1491 1490 1490 1489 1490 1491 1492 1493 1494 1495 1496
1505 1504 1504 1506 1509 1511 1505 1512 1507 1503 1508 1510 1514 1517 1520 1522 1524 1525 1525 1525 1525 1523 1522 1520 1518 1516 1514 1511 1509 1507 1505 1502 1500 1498 1496 1494 1493 1491 1490 1488 1488 1488 1488 1488 1489 1490 1491 1492 1493
1502 1503 1502 1503 1507 1518 1503 1510 1511 1506 1507 1510 1513 1516 1519 1521 1523 1524 1524 1524 1523 1522 1521 1520 1518 1515 1513 1511 1509 1507 1504 1502 1499 1497 1495 1493 1492 1490 1488 1487 1486 1486 1486 1486 1486 1487 1488 1489 1490
1502 1509 1517 1519 1522 1513 1499 1508 1511 1507 1506 1510 1513 1516 1518 1520 1522 1523 1523 1523 1522 1521 1520 1519 1517 1515 1513 1511 1509 1507 1504 1502 1499 1497 1495 1493 1491 1489 1487 1486 1485 1484 1484 1484 1484 1485 1486 1486 1488
1501 1506 1521 1530 1520 1510 1503 1509 1510 1505 1509 1512 1514 1516 1518 1519 1520 1521 1522 1522 1521 1521 1519 1518 1516 1514 1512 1510 1508 1506 1504 1501 1499 1497 1495 1492 1490 1489 1487 1485 1484 1483 1482 1482 1482 1482 1483 1484 1485
1503 1503 1501 1514 1512 1513 1503 1503 1508 1505 1508 1511 1513 1515 1517 1518 1519 1520 1521 1521 1520 1520 1519 1517 1516 1514 1512 1510 1508 1506 1503 1501 1498 1496 1494 1492 1490 1488 1486 1484 1483 1482 1481 1480 1480 1480 1481 1482 1483
1502 1502 1506 1514 1522 1523 1506 1503 1510 1509 1507 1509 1510 1513 1515 1516 1518 1519 1519 1519 1519 1519 1518 1516 1515 1514 1512 1510 1508 1506 1503 1501 1498 1496 1494 1491 1489 1487 1485 1484 1482 1481 1480 1479 1479 1479 1479 1480 1481
1504 1506 1507 1510 1511 1525 1525 1520 1502 1504 1506 1507 1509 1511 1513 1515 1516 1517 1518 1518 1518 1518 1517 1516 1515 1513 1512 1510 1508 1506 1503 1501 1499 1496 1494 1492 1489 1487 1485 1483 1482 1480 1479 1478 1478 1478 1478 1479 1479
1497 1500 1503 1516 1513 1510 1520 1521 1501 1503 1505 1506 1508 1510 1512 1514 1515 1516 1517 1517 1517 1517 1516 1516 1514 1513 1511 1510 1508 1506 1503 1501 1499 1497 1494 1492 1490 1487 1485 1483 1481 1480 1478 1477 1477 1477 1477 1477 1477